User: anonymous   Login
Location: Albany
(35.0000°S, 118.0000°E)
Time: 10:57:47
(UTC-04:00)
Language:

Radarsat Rocket - Orbit

View from above orbital plane
View from above orbital plane
View from above satellite
View from above satellite

Ground track
Ground track

The orbit data is extracted from the following two-line orbital elements,

1 23711U 95059B   16211.92411911 -.00000064 +00000-0 -33038-4 0  9994
2 23711 100.5285 198.0078 0367743 327.7200 081.3233 13.12686182993325
Epoch (UTC): 29 July 2016 22:10:43
Eccentricity: 0.0367743
inclination: 100.5285°
perigee height: 933 km
apogee height: 1492 km
right ascension of ascending node: 198.0078°
argument of perigee: 327.7200°
revolutions per day: 13.12686182
mean anomaly at epoch: 81.3233°
orbit number at epoch: 99332

The dashed part of the orbit path shows where the satellite is in the earth's shadow,  

DLR